Hourly Data Report for October 09, 2016

All times are specified in Local Standard Time (LST). Add 1 hour to adjust for Daylight Saving Time where and when it is observed.

BATHURST A
NEW BRUNSWICK

47°37'47.000" N
65°44'20.000" W
58.80 m
8100505
71574
ZBF

Download Data

Hourly Data (October 2016)
Hourly Data Report for October 9, 2016
Temp Definition
°C
Dew Point Temp Definition
°C
Rel Hum Definition
%
Wind Dir Definition
10's deg

Wind Spd Definition
km/h
Visibility Definition
km
Stn Press Definition
kPa
Hmdx Definition


Wind Chill Definition


Weather Definition


TIME
00:00 Legend Double Dagger 15.0 7.9 62 20 15 24.1 100.45     LegendNANA
01:00 Legend Double Dagger 14.5 7.1 61 20 13 24.1 100.44     LegendNANA
02:00 Legend Double Dagger 13.5 7.3 66 21 14 16.1 100.49     Rain Showers
03:00 Legend Double Dagger 12.2 8.7 79 20 9 24.1 100.49     LegendNANA
04:00 Legend Double Dagger 13.2 8.9 75 19 8 24.1 100.48     LegendNANA
05:00 Legend Double Dagger 12.5 10.1 85 23 3 24.1 100.58     Rain Showers
06:00 Legend Double Dagger 11.7 10.9 95 36 2 16.1 100.63     Rain Showers
07:00 Legend Double Dagger 11.3 8.7 84 31 12 19.3 100.73     LegendNANA
08:00 Legend Double Dagger 12.0 7.9 76 28 12 24.1 100.81     Mostly Cloudy
09:00 Legend Double Dagger 11.7 7.1 73 30 10 24.1 100.88     LegendNANA
10:00 Legend Double Dagger 12.8 4.3 56 31 10 24.1 100.92     LegendNANA
11:00 Legend Double Dagger 12.9 3.6 53 30 13 24.1 100.91     Mostly Cloudy
12:00 Legend Double Dagger 13.8 4.2 52 29 13 24.1 100.92     LegendNANA
13:00 Legend Double Dagger 14.8 3.7 47 28 12 24.1 100.93     LegendNANA
14:00 Legend Double Dagger 14.5 2.8 45 32 7 24.1 100.90     Cloudy
15:00 Legend Double Dagger 14.1 3.0 47 30 8 24.1 100.93     LegendNANA
16:00 Legend Double Dagger 13.5 3.1 49 30 7 24.1 101.00     LegendNANA
17:00 Legend Double Dagger 12.9 2.8 50 30 8 24.1 101.07     Cloudy
18:00 Legend Double Dagger 11.8 3.6 57 35 5 24.1 101.13     LegendNANA
19:00 Legend Double Dagger 10.9 2.5 56 34 11 24.1 101.17     LegendNANA
20:00 Legend Double Dagger 10.0 1.9 57 34 14 24.1 101.20     Cloudy
21:00 Legend Double Dagger 9.4 2.1 60 31 8 24.1 101.28     LegendNANA
22:00 Legend Double Dagger 8.8 2.4 64 33 8 24.1 101.27     LegendNANA
23:00 Legend Double Dagger 8.5 2.3 65 33 9 24.1 101.24     Cloudy

Notes on Data Quality.

Legend

  • E = Estimated
  • M = Missing
  • NA = Not Available
  • ‡ = Partner data that is not subject to review by the National Climate Archives
Date modified: